Location: Nied?wied?
(53.3665°N, 14.8184°E)
Time: 21:49:27
(UTC+00:00)

Cosmos 2322 Rocket - Pass Details

Date: 03 March 2021
Orbit: 832 x 852 km, 71.0° (Epoch: 12 April)

Event Time Altitude Azimuth Distance (km) Brightness Sun altitude
Rises 19:09:27 0° 233° (SW) 3,371 5.8 -22.4°
Reaches altitude 10° 19:12:00 10° 240° (WSW) 2,441 5.1 -22.7°
Maximum altitude 19:17:21 45° 313° (NW) 1,137 3.2 -23.5°
Drops below altitude 10° 19:22:44 10° 25° (NNE) 2,462 4.6 -24.2°
Sets 19:25:19 0° 32° (NNE) 3,403 5.3 -24.6°
